Вернуться в каталог

BREEZE-M DEB

АктивенHEO
NORAD 38187·DEBRIS·🇷🇺 Russia

Запущен Nov 25, 2011 с Baikonur Cosmodrome

Loading…

Ближайшие Пролёты (ближайшие 24 часа)

TLE

СвежийSource: Space-Track

Эпоха: Sep 12, 2026, 20:42 UTC

1 38187U 11069D   26255.86266081 -.00000138  00000-0  00000-0 0  9994
2 38187   1.6485  34.7342 3802772 340.2024   8.4029  1.71974027 90549

Отслеживайте BREEZE-M DEB в реальном времени с AllMySat

Download on the App Store